Change the Weather History Date:

Sunday, April 14, 2013

  Actual Average Record
Temperature  
Mean Temperature 22 °F -  
Max Temperature 39 °F 43 °F 80 °F (2003)
Min Temperature 6 °F 24 °F 6 °F (2013)
Degree Days  
Heating Degree Days 42    
Moisture  
Dew Point 17 °F    
Average Humidity 73    
Maximum Humidity 93    
Minimum Humidity 39    
Precipitation  
Precipitation 0.06 in - - ()
Sea Level Pressure  
Sea Level Pressure 29.87 in    
Wind  
Wind Speed 6 mph (ENE)    
Max Wind Speed 25 mph    
Max Gust Speed 40 mph    
Visibility 8 miles    
Events Rain    
Averages and records for this station are not official NWS values.
T = Trace of Precipitation, MM = Missing Value Source: NWS Daily Summary

Daily Weather History Graph

Daily Weather History Graph

Search for Another Location

Airport or City:

Trip Planner

Search our weather history database for the weather conditions in past years. The results will help you decide how hot, cold, wet, or windy it might be!

Date:

Astronomy

Apr. 14, 2013 Rise Set
Actual Time 6:18 AM CDT 7:53 PM CDT
Civil Twilight 5:46 AM CDT 8:25 PM CDT
Nautical Twilight 5:07 AM CDT 9:05 PM CDT
Astronomical Twilight 4:25 AM CDT 9:47 PM CDT
Moon 8:44 AM CDT (4/14) No Moon Set
Length of Visible Light 14h 39m
Length of Day
13h 34m
Waxing Crescent, 17% of the Moon is Illuminated
Apr 14
Waxing Crescent
Apr 18
First Quarter
Apr 25
Full
May 2
Last Quarter
May 9
New

Hourly Weather History & Observations

Time (CDT) Temp. Windchill Dew Point Humidity Pressure Visibility Wind Dir Wind Speed Gust Speed Precip Events Conditions
12:13 AM 14.0 °F - 10.4 °F 86% 29.94 in 10.0 mi Calm Calm - N/A   Clear
12:33 AM 12.2 °F - 8.6 °F 85% 29.94 in 10.0 mi Calm Calm - N/A   Clear
12:53 AM 12.2 °F - 8.6 °F 85% 29.95 in 10.0 mi Calm Calm - N/A   Clear
1:13 AM 12.2 °F - 8.6 °F 85% 29.95 in 10.0 mi Calm Calm - N/A   Clear
1:33 AM 12.2 °F - 8.6 °F 85% 29.95 in 10.0 mi Calm Calm - N/A   Clear
1:53 AM 10.4 °F - 6.8 °F 85% 29.94 in 10.0 mi Calm Calm - N/A   Clear
2:13 AM 10.4 °F - 5.0 °F 79% 29.95 in 10.0 mi Calm Calm - N/A   Clear
2:33 AM 10.4 °F - 6.8 °F 85% 29.95 in 10.0 mi Calm Calm - N/A   Clear
2:53 AM 10.4 °F - 6.8 °F 85% 29.95 in 10.0 mi Calm Calm - N/A   Clear
3:13 AM 8.6 °F - 3.2 °F 79% 29.95 in 10.0 mi Calm Calm - N/A   Clear
3:33 AM 8.6 °F - 3.2 °F 79% 29.94 in 10.0 mi Calm Calm - N/A   Clear
3:53 AM 6.8 °F - 1.4 °F 79% 29.93 in 10.0 mi Calm Calm - N/A   Clear
4:13 AM 6.8 °F - 1.4 °F 79% 29.92 in 10.0 mi Calm Calm - N/A   Clear
4:33 AM 6.8 °F - 1.4 °F 79% 29.92 in 10.0 mi Calm Calm - N/A   Clear
4:53 AM 6.8 °F - 3.2 °F 85% 29.93 in 10.0 mi Calm Calm - N/A   Clear
5:13 AM 8.6 °F - 6.8 °F 92% 29.93 in 10.0 mi Calm Calm - N/A   Clear
5:33 AM 8.6 °F - 3.2 °F 79% 29.92 in 10.0 mi Calm Calm - N/A   Clear
5:53 AM 6.8 °F - 1.4 °F 79% 29.92 in 10.0 mi Calm Calm - N/A   Clear
6:13 AM 6.8 °F - 3.2 °F 85% 29.95 in 10.0 mi Calm Calm - N/A   Clear
6:33 AM 8.6 °F - 3.2 °F 79% 29.97 in 10.0 mi Calm Calm - N/A   Clear
6:53 AM 10.4 °F - 6.8 °F 85% 29.97 in 10.0 mi Calm Calm - N/A   Clear
7:13 AM 12.2 °F - 6.8 °F 79% 29.96 in 10.0 mi Calm Calm - N/A   Clear
7:33 AM 15.8 °F - 10.4 °F 79% 29.96 in 10.0 mi Calm Calm - N/A   Clear
7:53 AM 23.0 °F - 17.6 °F 80% 29.97 in 10.0 mi Calm Calm - N/A   Clear
8:13 AM 24.8 °F 19.1 °F 19.4 °F 80% 29.93 in 10.0 mi NNE 4.6 mph - N/A   Clear
8:33 AM 30.2 °F - 21.2 °F 69% 29.94 in 10.0 mi Calm Calm - N/A   Clear
8:53 AM 35.6 °F - 19.4 °F 52% 29.93 in 10.0 mi Calm Calm - N/A   Clear
9:13 AM 37.4 °F - 15.8 °F 41% 29.92 in 10.0 mi Calm Calm - N/A   Clear
9:33 AM 37.4 °F 32.1 °F 15.8 °F 41% 29.93 in 10.0 mi East 6.9 mph - N/A   Clear
9:53 AM 39.2 °F 33.0 °F 15.8 °F 39% 29.94 in 10.0 mi ESE 9.2 mph - N/A   Clear
10:13 AM 37.4 °F 31.4 °F 15.8 °F 41% 29.93 in 10.0 mi East 8.1 mph - N/A   Clear
10:33 AM 37.4 °F 30.3 °F 15.8 °F 41% 29.92 in 10.0 mi ENE 10.4 mph - N/A   Clear
10:53 AM 37.4 °F 30.3 °F 17.6 °F 45% 29.92 in 10.0 mi ENE 10.4 mph - N/A   Clear
11:13 AM 37.4 °F 30.3 °F 17.6 °F 45% 29.90 in 10.0 mi East 10.4 mph - N/A   Clear
11:33 AM 37.4 °F 30.8 °F 17.6 °F 45% 29.90 in 10.0 mi East 9.2 mph 18.4 mph N/A   Clear
11:53 AM 37.4 °F 29.8 °F 19.4 °F 48% 29.90 in 10.0 mi East 11.5 mph 17.3 mph N/A   Clear
12:13 PM 37.4 °F 29.3 °F 19.4 °F 48% 29.90 in 10.0 mi East 12.7 mph 16.1 mph N/A   Clear
12:33 PM 37.4 °F 29.8 °F 17.6 °F 45% 29.90 in 10.0 mi ENE 11.5 mph - N/A   Clear
12:53 PM 35.6 °F 26.2 °F 19.4 °F 52% 29.90 in 10.0 mi ENE 15.0 mph 20.7 mph N/A   Clear
1:13 PM 35.6 °F 27.5 °F 21.2 °F 56% 29.90 in 10.0 mi ENE 11.5 mph 21.9 mph N/A   Clear
1:33 PM 37.4 °F 28.9 °F 21.2 °F 52% 29.89 in 10.0 mi ENE 13.8 mph - N/A   Clear
1:53 PM 37.4 °F 28.9 °F 23.0 °F 56% 29.90 in 10.0 mi ENE 13.8 mph 17.3 mph N/A   Clear
2:13 PM 35.6 °F 26.6 °F 23.0 °F 60% 29.90 in 10.0 mi ENE 13.8 mph 21.9 mph N/A   Clear
2:33 PM 35.6 °F 26.6 °F 24.8 °F 65% 29.89 in 10.0 mi ENE 13.8 mph 20.7 mph N/A   Clear
3:13 PM 33.8 °F 23.5 °F 26.6 °F 75% 29.87 in 10.0 mi ENE 16.1 mph 27.6 mph N/A   Scattered Clouds
3:33 PM 33.8 °F 22.8 °F 24.8 °F 70% 29.86 in 10.0 mi ENE 18.4 mph 28.8 mph N/A   Scattered Clouds
3:53 PM 35.6 °F 25.9 °F 24.8 °F 65% 29.84 in 10.0 mi ENE 16.1 mph 23.0 mph N/A   Clear
4:13 PM 33.8 °F 22.2 °F 21.2 °F 60% 29.82 in 10.0 mi East 20.7 mph 29.9 mph N/A   Scattered Clouds
4:33 PM 33.8 °F 24.3 °F 23.0 °F 65% 29.82 in 10.0 mi ENE 13.8 mph 26.5 mph N/A   Overcast
4:53 PM 32.0 °F 20.1 °F 23.0 °F 69% 29.81 in 10.0 mi ENE 19.6 mph 29.9 mph N/A   Scattered Clouds
5:13 PM 32.0 °F 18.6 °F 23.0 °F 69% 29.80 in 10.0 mi ENE 25.3 mph 35.7 mph N/A   Clear
5:33 PM 32.0 °F 20.8 °F 24.8 °F 75% 29.80 in 10.0 mi East 17.3 mph 28.8 mph N/A   Scattered Clouds
5:53 PM 30.2 °F 17.8 °F 24.8 °F 80% 29.79 in 10.0 mi ENE 19.6 mph 29.9 mph N/A   Scattered Clouds
6:13 PM 30.2 °F 18.1 °F 24.8 °F 80% 29.79 in 10.0 mi ENE 18.4 mph 40.3 mph N/A   Scattered Clouds
6:33 PM 30.2 °F 16.8 °F 23.0 °F 75% 29.78 in 4.0 mi ENE 23.0 mph 33.4 mph N/A Rain Light Freezing Rain
6:53 PM 30.2 °F 17.1 °F 24.8 °F 80% 29.79 in 1.8 mi ENE 21.9 mph 33.4 mph N/A Rain Light Freezing Rain
7:13 PM 28.4 °F 14.4 °F 24.8 °F 86% 29.79 in 0.8 mi East 23.0 mph 33.4 mph N/A Rain Light Freezing Rain
7:33 PM 28.4 °F 15.1 °F 24.8 °F 86% 29.78 in 1.2 mi ENE 20.7 mph 28.8 mph N/A Rain Light Freezing Rain
7:53 PM 28.4 °F 15.4 °F 24.8 °F 86% 29.77 in 2.5 mi ENE 19.6 mph 32.2 mph N/A Rain Light Freezing Rain
8:13 PM 28.4 °F 15.4 °F 26.6 °F 93% 29.76 in 2.0 mi ENE 19.6 mph 31.1 mph N/A Rain Light Freezing Rain
8:33 PM 28.4 °F 14.1 °F 26.6 °F 93% 29.76 in 1.8 mi ENE 24.2 mph 29.9 mph N/A Rain Light Freezing Rain
8:53 PM 30.2 °F 16.8 °F 26.6 °F 86% 29.75 in 1.8 mi ENE 23.0 mph 32.2 mph N/A Rain Light Freezing Rain
9:13 PM 30.2 °F 18.5 °F 26.6 °F 86% 29.73 in 2.0 mi East 17.3 mph 26.5 mph N/A Rain Light Freezing Rain
9:33 PM 30.2 °F 17.8 °F 26.6 °F 86% 29.75 in 2.0 mi ENE 19.6 mph 29.9 mph 0.01 in Rain Light Freezing Rain
9:53 PM 30.2 °F 17.4 °F 26.6 °F 86% 29.74 in 1.8 mi East 20.7 mph 34.5 mph 0.01 in Rain Light Freezing Rain
10:13 PM 30.2 °F 17.4 °F 26.6 °F 86% 29.73 in 1.2 mi ENE 20.7 mph 33.4 mph 0.02 in Rain Light Freezing Rain
10:33 PM 28.4 °F 15.8 °F 26.6 °F 93% 29.72 in 1.5 mi ENE 18.4 mph 35.7 mph 0.02 in Rain Light Freezing Rain
10:53 PM 28.4 °F 16.2 °F 26.6 °F 93% 29.71 in 1.5 mi ENE 17.3 mph 31.1 mph 0.01 in Rain Light Freezing Rain
11:13 PM 28.4 °F 14.4 °F 26.6 °F 93% 29.70 in 1.8 mi ENE 23.0 mph 29.9 mph 0.02 in Rain Light Freezing Rain
11:33 PM 28.4 °F 16.2 °F 26.6 °F 93% 29.70 in 1.5 mi ENE 17.3 mph 31.1 mph 0.03 in Rain Light Freezing Rain
11:53 PM 28.4 °F 15.1 °F 26.6 °F 93% 29.69 in 1.8 mi East 20.7 mph 28.8 mph 0.01 in Rain Light Freezing Rain